Tracking 30970 objects as of 3-Jul-2025
HD Live streaming from Space Station
objects crossing your sky now

STARLINK-31881

Track STARLINK-31881 now!
10-day predictions
STARLINK-31881 is classified as:


NORAD ID: 59659
Int'l Code: 2024-084F
Perigee: 489.3 km
Apogee: 491.1 km
Inclination: 43.0 °
Period: 94.3 minutes
Semi major axis: 6861 km
RCS: Unknown
Launch date: May 6, 2024
Source: United States (US)
Launch site: AIR FORCE EASTERN TEST RANGE (AFETR)
Your satellite tracking list
Your tracking list is empty




NASA's NSSDC Master Catalog

Two Line Element Set (TLE):
1 59659U 24084F   25183.90689776  .00001117  00000-0  50131-4 0  9997
2 59659  43.0044   8.8460 0001301 261.7265  98.3439 15.27572115 66218
Source of the keplerian elements: AFSPC